Time,TemperatureF,DewpointF,PressureIn,WindDirection,WindDirectionDegrees,WindSpeedMPH,WindSpeedGustMPH,Humidity,HourlyPrecipIn,Conditions,Clouds,dailyrainin,SoftwareType,DateUTC
2013-07-10 00:01:00,68.0,65.0,30.20,SSE,163,1.0,3.0,90,0.00,,,0.01,,2013-07-10 04:01:00,
2013-07-10 00:11:00,67.0,65.0,30.20,SSE,163,0.0,2.0,94,0.00,,,0.01,,2013-07-10 04:11:00,
2013-07-10 00:22:00,67.0,65.0,30.20,SSE,163,0.0,2.0,94,0.00,,,0.01,,2013-07-10 04:22:00,
2013-07-10 00:33:00,67.0,65.0,30.20,SSE,163,1.0,3.0,94,0.00,,,0.01,,2013-07-10 04:33:00,
2013-07-10 00:43:00,67.0,65.0,30.18,SSE,163,2.0,4.0,92,0.00,,,0.01,,2013-07-10 04:43:00,
2013-07-10 00:52:00,67.0,65.0,30.18,SSE,163,2.0,4.0,92,0.00,,,0.01,,2013-07-10 04:52:00,
2013-07-10 01:12:00,67.0,63.0,30.17,SSE,165,2.0,5.0,88,0.00,,,0.01,,2013-07-10 05:12:00,
2013-07-10 01:22:00,67.0,63.0,30.17,SSE,165,2.0,5.0,88,0.00,,,0.01,,2013-07-10 05:22:00,
2013-07-10 01:32:00,67.0,62.0,30.17,SSE,166,2.0,7.0,85,0.00,,,0.01,,2013-07-10 05:32:00,
2013-07-10 01:42:00,68.0,63.0,30.16,SSE,167,1.0,4.0,83,0.00,,,0.01,,2013-07-10 05:42:00,
2013-07-10 01:52:00,67.0,63.0,30.15,SSE,166,0.0,3.0,86,0.00,,,0.01,,2013-07-10 05:52:00,
2013-07-10 02:01:00,67.0,63.0,30.15,SSE,166,0.0,3.0,86,0.00,,,0.01,,2013-07-10 06:01:00,
2013-07-10 02:11:00,67.0,63.0,30.15,SSE,166,1.0,6.0,87,0.00,,,0.01,,2013-07-10 06:11:00,
2013-07-10 02:22:00,67.0,63.0,30.15,SSE,166,1.0,6.0,87,0.00,,,0.01,,2013-07-10 06:22:00,
2013-07-10 02:32:00,67.0,63.0,30.15,SSE,166,1.0,6.0,87,0.00,,,0.01,,2013-07-10 06:32:00,
2013-07-10 02:42:00,67.0,64.0,30.14,SSE,153,1.0,5.0,89,0.00,,,0.01,,2013-07-10 06:42:00,
2013-07-10 02:52:00,67.0,64.0,30.13,SSE,153,0.0,3.0,89,0.00,,,0.01,,2013-07-10 06:52:00,
2013-07-10 03:01:00,67.0,64.0,30.13,SSE,153,0.0,3.0,89,0.00,,,0.01,,2013-07-10 07:01:00,
2013-07-10 03:12:00,67.0,62.0,30.12,SSE,153,0.0,7.0,85,0.00,,,0.01,,2013-07-10 07:12:00,
2013-07-10 03:22:00,67.0,62.0,30.11,SSE,157,2.0,6.0,85,0.00,,,0.01,,2013-07-10 07:22:00,
2013-07-10 03:33:00,67.0,62.0,30.11,SSE,157,2.0,6.0,85,0.00,,,0.01,,2013-07-10 07:33:00,
2013-07-10 03:43:00,67.0,63.0,30.11,SSE,159,0.0,5.0,86,0.00,,,0.01,,2013-07-10 07:43:00,
2013-07-10 03:53:00,68.0,63.0,30.11,SSE,160,0.0,2.0,84,0.00,,,0.01,,2013-07-10 07:53:00,
2013-07-10 04:02:00,68.0,63.0,30.11,SSE,160,0.0,2.0,84,0.00,,,0.01,,2013-07-10 08:02:00,
2013-07-10 04:11:00,67.0,62.0,30.12,SSE,159,0.0,1.0,84,0.00,,,0.01,,2013-07-10 08:11:00,
2013-07-10 04:33:00,66.0,62.0,30.12,SSE,160,0.0,1.0,87,0.00,,,0.01,,2013-07-10 08:33:00,
2013-07-10 04:42:00,65.0,62.0,30.12,SSE,160,0.0,0.0,89,0.00,,,0.01,,2013-07-10 08:42:00,
2013-07-10 04:53:00,65.0,62.0,30.12,SSE,159,0.0,1.0,90,0.00,,,0.01,,2013-07-10 08:53:00,
2013-07-10 05:02:00,65.0,62.0,30.12,SSE,159,0.0,1.0,90,0.00,,,0.01,,2013-07-10 09:02:00,
2013-07-10 05:12:00,65.0,62.0,30.13,SSE,160,0.0,0.0,91,0.00,,,0.01,,2013-07-10 09:12:00,
2013-07-10 05:22:00,65.0,62.0,30.13,SSE,160,0.0,0.0,91,0.00,,,0.01,,2013-07-10 09:22:00,
2013-07-10 05:32:00,64.0,62.0,30.13,SSE,160,0.0,0.0,92,0.00,,,0.01,,2013-07-10 09:32:00,
2013-07-10 05:42:00,65.0,63.0,30.13,SSE,159,0.0,0.0,92,0.00,,,0.01,,2013-07-10 09:42:00,
2013-07-10 05:52:00,65.0,63.0,30.13,SSE,159,0.0,0.0,92,0.00,,,0.01,,2013-07-10 09:52:00,
2013-07-10 06:01:00,65.0,63.0,30.13,SSE,159,0.0,0.0,92,0.00,,,0.01,,2013-07-10 10:01:00,
2013-07-10 06:13:00,65.0,63.0,30.13,SSE,159,0.0,0.0,92,0.00,,,0.01,,2013-07-10 10:13:00,
2013-07-10 06:32:00,65.0,62.0,30.13,SSE,159,0.0,1.0,90,0.00,,,0.01,,2013-07-10 10:32:00,
2013-07-10 06:50:00,-999.0,-99.9,30.13,SSE,159,0.0,3.0,-999,-99.99,,,-99.99,,2013-07-10 10:50:00,
2013-07-10 07:00:00,-999.0,-99.9,30.13,SSE,159,0.0,2.0,-999,-99.99,,,-99.99,,2013-07-10 11:00:00,
2013-07-10 07:11:00,65.0,62.0,30.13,SSE,159,1.0,5.0,91,0.00,,,0.01,,2013-07-10 11:11:00,
2013-07-10 07:33:00,66.0,63.0,30.13,SSE,159,2.0,6.0,90,0.00,,,0.01,,2013-07-10 11:33:00,
2013-07-10 07:43:00,67.0,64.0,30.13,SSE,162,0.0,6.0,90,0.00,,,0.01,,2013-07-10 11:43:00,
2013-07-10 07:52:00,67.0,64.0,30.13,SSE,162,0.0,6.0,90,0.00,,,0.01,,2013-07-10 11:52:00,
2013-07-10 08:02:00,69.0,65.0,30.14,SSE,166,0.0,3.0,87,0.00,,,0.01,,2013-07-10 12:02:00,
2013-07-10 11:42:00,80.0,71.0,30.14,SSE,167,0.0,3.0,75,0.00,,,0.01,,2013-07-10 15:42:00,
2013-07-10 11:52:00,80.0,71.0,30.14,SSE,167,0.0,3.0,75,0.00,,,0.01,,2013-07-10 15:52:00,
2013-07-10 12:01:00,81.0,71.0,30.14,SSE,167,1.0,4.0,71,0.00,,,0.01,,2013-07-10 16:01:00,
2013-07-10 12:33:00,81.0,71.0,30.14,SSE,167,0.0,4.0,72,0.00,,,0.01,,2013-07-10 16:33:00,
2013-07-10 12:44:00,78.0,70.0,30.14,SSE,167,0.0,2.0,77,0.00,,,0.01,,2013-07-10 16:44:00,
2013-07-10 12:53:00,78.0,70.0,30.14,SSE,167,0.0,2.0,77,0.00,,,0.01,,2013-07-10 16:53:00,
2013-07-10 13:02:00,74.0,67.0,30.13,SSE,167,0.0,3.0,80,0.00,,,0.01,,2013-07-10 17:02:00,
2013-07-10 13:11:00,72.0,66.0,30.13,SSE,167,0.0,1.0,82,0.00,,,0.01,,2013-07-10 17:11:00,
2013-07-10 13:32:00,78.0,69.0,30.12,SSE,167,0.0,2.0,75,0.00,,,0.01,,2013-07-10 17:32:00,
2013-07-10 13:43:00,81.0,71.0,30.12,SSE,167,0.0,3.0,72,0.00,,,0.01,,2013-07-10 17:43:00,
2013-07-10 14:53:00,83.0,73.0,30.09,SSE,167,0.0,2.0,72,0.00,,,0.01,,2013-07-10 18:53:00,
2013-07-10 15:32:00,81.0,72.0,30.08,SSE,167,0.0,4.0,73,0.00,,,0.01,,2013-07-10 19:32:00,
2013-07-10 15:42:00,79.0,71.0,30.07,SSE,167,0.0,2.0,77,0.00,,,0.01,,2013-07-10 19:42:00,
2013-07-10 15:52:00,79.0,71.0,30.07,SSE,167,0.0,2.0,77,0.00,,,0.01,,2013-07-10 19:52:00,
2013-07-10 16:01:00,77.0,70.0,30.07,SSE,167,0.0,1.0,79,0.00,,,0.01,,2013-07-10 20:01:00,
2013-07-10 16:11:00,76.0,70.0,30.06,SSE,167,0.0,1.0,81,0.00,,,0.01,,2013-07-10 20:11:00,
2013-07-10 16:32:00,74.0,69.0,30.07,SSE,167,0.0,1.0,85,0.00,,,0.01,,2013-07-10 20:32:00,
2013-07-10 16:43:00,73.0,70.0,30.07,SSE,167,0.0,1.0,89,0.01,,,0.02,,2013-07-10 20:43:00,
2013-07-10 16:52:00,73.0,70.0,30.07,SSE,167,0.0,1.0,89,0.01,,,0.02,,2013-07-10 20:52:00,
2013-07-10 17:01:00,71.0,67.0,30.07,SSE,167,0.0,5.0,87,0.01,,,0.02,,2013-07-10 21:01:00,
2013-07-10 17:11:00,71.0,69.0,30.06,SSE,167,0.0,2.0,92,0.03,,,0.04,,2013-07-10 21:11:00,
2013-07-10 17:32:00,71.0,69.0,30.06,SSE,167,0.0,0.0,92,0.03,,,0.04,,2013-07-10 21:32:00,
2013-07-10 17:42:00,71.0,69.0,30.06,SSE,167,0.0,1.0,92,0.03,,,0.05,,2013-07-10 21:42:00,
2013-07-10 17:52:00,71.0,69.0,30.06,SSE,167,0.0,1.0,92,0.03,,,0.05,,2013-07-10 21:52:00,
2013-07-10 18:01:00,71.0,69.0,30.05,SSE,167,0.0,1.0,93,0.06,,,0.08,,2013-07-10 22:01:00,
2013-07-10 18:11:00,71.0,69.0,30.06,SSE,167,0.0,0.0,93,0.04,,,0.08,,2013-07-10 22:11:00,
2013-07-10 18:33:00,71.0,69.0,30.06,SSE,167,0.0,1.0,94,0.05,,,0.09,,2013-07-10 22:33:00,
2013-07-10 18:43:00,71.0,69.0,30.06,SSE,167,0.0,1.0,94,0.04,,,0.09,,2013-07-10 22:43:00,
2013-07-10 18:53:00,71.0,69.0,30.06,SSE,167,0.0,1.0,94,0.02,,,0.10,,2013-07-10 22:53:00,
2013-07-10 19:01:00,71.0,69.0,30.06,SSE,167,0.0,1.0,94,0.02,,,0.10,,2013-07-10 23:01:00,
2013-07-10 19:11:00,70.0,67.0,30.06,SSE,167,1.0,3.0,91,0.02,,,0.10,,2013-07-10 23:11:00,
2013-07-10 19:32:00,68.0,65.0,30.06,SSE,167,2.0,5.0,90,0.01,,,0.09,,2013-07-10 23:32:00,
2013-07-10 19:43:00,68.0,65.0,30.06,SSE,167,2.0,5.0,90,0.01,,,0.09,,2013-07-10 23:43:00,
2013-07-10 19:52:00,67.0,65.0,30.06,SSE,162,0.0,7.0,92,0.00,,,0.09,,2013-07-10 23:52:00,
2013-07-10 20:01:00,67.0,65.0,30.06,SSE,162,0.0,7.0,92,0.00,,,0.09,,2013-07-11 00:01:00,
2013-07-10 20:11:00,68.0,66.0,30.06,SSE,160,0.0,4.0,92,0.00,,,0.09,,2013-07-11 00:11:00,
2013-07-10 20:22:00,68.0,66.0,30.07,SSE,165,2.0,8.0,92,0.00,,,0.09,,2013-07-11 00:22:00,
2013-07-10 20:32:00,68.0,66.0,30.07,SSE,165,2.0,8.0,92,0.00,,,0.09,,2013-07-11 00:32:00,
2013-07-10 20:42:00,65.0,62.0,30.06,South,174,2.0,9.0,91,0.26,,,0.35,,2013-07-11 00:42:00,
2013-07-10 20:52:00,65.0,62.0,30.06,South,174,2.0,9.0,91,0.26,,,0.35,,2013-07-11 00:52:00,
2013-07-10 21:01:00,65.0,63.0,30.08,SSE,167,1.0,10.0,94,0.34,,,0.43,,2013-07-11 01:01:00,
2013-07-10 21:11:00,65.0,63.0,30.08,SSE,167,1.0,10.0,94,0.34,,,0.43,,2013-07-11 01:11:00,
2013-07-10 21:22:00,65.0,64.0,30.07,SSE,158,1.0,7.0,95,0.39,,,0.48,,2013-07-11 01:22:00,
2013-07-10 21:32:00,65.0,64.0,30.07,SSE,158,1.0,7.0,95,0.39,,,0.48,,2013-07-11 01:32:00,
2013-07-10 21:43:00,65.0,64.0,30.06,SSE,158,0.0,4.0,95,0.20,,,0.55,,2013-07-11 01:43:00,
2013-07-10 21:52:00,65.0,64.0,30.06,SSE,158,0.0,4.0,95,0.20,,,0.55,,2013-07-11 01:52:00,
2013-07-10 22:02:00,65.0,64.0,30.05,SSE,159,0.0,2.0,95,0.17,,,0.60,,2013-07-11 02:02:00,
2013-07-10 22:11:00,65.0,64.0,30.04,SSE,160,0.0,1.0,95,0.16,,,0.64,,2013-07-11 02:11:00,
2013-07-10 22:22:00,65.0,64.0,30.04,SSE,160,0.0,1.0,95,0.16,,,0.64,,2013-07-11 02:22:00,
2013-07-10 22:32:00,65.0,64.0,30.05,SSE,160,0.0,5.0,95,0.16,,,0.67,,2013-07-11 02:32:00,
2013-07-10 22:43:00,66.0,64.0,30.05,SSE,160,1.0,6.0,93,0.13,,,0.68,,2013-07-11 02:43:00,
2013-07-10 23:02:00,66.0,64.0,30.05,SSE,160,2.0,6.0,92,0.07,,,0.68,,2013-07-11 03:02:00,
2013-07-10 23:22:00,65.0,63.0,30.05,South,169,2.0,6.0,93,0.04,,,0.68,,2013-07-11 03:22:00,
2013-07-10 23:33:00,65.0,63.0,30.05,SSE,167,2.0,7.0,93,0.01,,,0.68,,2013-07-11 03:33:00,
2013-07-10 23:42:00,65.0,63.0,30.04,SSE,168,3.0,7.0,93,0.00,,,0.68,,2013-07-11 03:42:00,
2013-07-10 23:52:00,65.0,63.0,30.04,SSE,168,3.0,7.0,93,0.00,,,0.68,,2013-07-11 03:52:00,